sat.trackr.live / text

‹ back to catalog

STARLINK-30571

NORAD 58066 · 2023-158R

PAYLOAD ACTIVE UNKNOWN

§ Identity

Operator
Country
US
Launch date
2023-10-13
Launch site
AFETR
Launch vehicle
Mass (kg)
RCS (m²)

Purposes: comms

External: N2YO · Heavens-Above · Gunter

§ Orbital elements

Epoch: 2026-09-20T07:39:54.061344Z

Period
94.27 min
Inclination
43.0032°
Eccentricity
0.0001692
Mean motion
15.27588344 rev/d
Perigee alt
481.9 km
Apogee alt
484.2 km
Semi-major
6,861.2 km
B*
-1.7817e-6
RAAN
8.0889°
Arg perigee
297.7986°
Mean anomaly
62.2694°
Rev number
16,333

§ Raw data

STARLINK-305711 58066U 23158R   26263.31937571 -.00000311  00000+0 -17817-5 0  99942 58066  43.0032   8.0889 0001692 297.7986  62.2694 15.27588344163330

JSON: /api/v1/satellites/58066 · /tle

For live sub-satellite position, see the globe view (requires WebGL).

§ Visibility from observer

Set your observer location to see the next 7 days of passes ≥ 10°. The values pass through the URL so the page stays shareable.

No JS? Fill the form by hand. The geolocation button needs JavaScript.